Regional Weather Roundup
Issued by NWS

Home | Current Version | Previous Version | Text Only | Print | Product List | Glossary Off
Versions: 1 2 3 4 5 6 7 8 9 10 11 12 13 14 15 16 17 18 19 20 21 22 23 24 25 26 27 28 29 30 31 32 33 34 35 36 37 38 39 40 41 42 43 44 45 46 47 48 49 50

954
ASUS43 KDTX 030601
RWRMI
MICHIGAN HOURLY REGIONAL WEATHER ROUNDUP
NATIONAL WEATHER SERVICE DETROIT/PONTIAC MI
100 AM EST SAT DEC 03 2016

NOTE: "FAIR" INDICATES FEW OR NO CLOUDS BELOW 12,000 FEET WITH NO
SIGNIFICANT WEATHER AND/OR OBSTRUCTION TO VISIBILITY.

MIZ047>049-052>055-059>063-066>070-074>076-081>083-030700-
SOUTHEAST LOWER MICHIGAN

CITY           SKY/WX    TMP DP  RH WIND       PRES   REMARKS
ADRIAN         CLOUDY    35  29  78 NW5       30.27S WCI  31
6HR MIN TEMP:  35; 6HR MAX TEMP:  37;

ALMA           CLOUDY    34  30  85 W8        30.25S WCI  27
6HR MIN TEMP:  32; 6HR MAX TEMP:  36;

ANN ARBOR      CLOUDY    35  28  75 W8        30.24S WCI  29
BAD AXE        CLOUDY    37  33  85 W7        30.19R WCI  31
CARO           CLOUDY    35  32  88 W12       30.21R WCI  27
DETROIT CITY   CLOUDY    35  28  75 W7        30.24S WCI  29
6HR MIN TEMP:  34; 6HR MAX TEMP:  37;

DETROIT        MOCLDY    35  27  72 W8        30.25S WCI  29
6HR MIN TEMP:  33; 6HR MAX TEMP:  37;

FLINT          CLOUDY    34  29  82 W10       30.24S WCI  26
6HR MIN TEMP:  32; 6HR MAX TEMP:  37;

GROSSE ILE     CLOUDY    36  28  73 W6        30.24S WCI  31
6HR MIN TEMP:  34; 6HR MAX TEMP:  37;

HILLSDALE      CLOUDY    32  28  86 W6        30.24S WCI  26
HOWELL         CLOUDY    33  28  81 W9        30.23S WCI  26

CITY           SKY/WX    TMP DP  RH WIND       PRES   REMARKS
JACKSON        CLOUDY    35  27  72 W9        30.24  WCI  28
6HR MIN TEMP:  34; 6HR MAX TEMP:  35;

LAMBERTVILLE   CLOUDY    37  29  72 NW3       30.26F
6HR MIN TEMP:  37; 6HR MAX TEMP:  39;

LANSING        CLOUDY    35  27  72 W7        30.25F WCI  29
6HR MIN TEMP:  35; 6HR MAX TEMP:  36;

LAPEER         NOT AVBL
MASON          CLOUDY    34  29  82 W10       30.24F WCI  26
MONROE         CLOUDY    36  29  76 W9        30.24F WCI  29
6HR MIN TEMP:  35; 6HR MAX TEMP:  37;

MT. CLEMENS    CLOUDY    36  29  76 W12       30.20S WCI  28
6HR MIN TEMP:  35; 6HR MAX TEMP:  38;

PONTIAC        CLEAR     32  27  81 W7        30.21S WCI  26
6HR MIN TEMP:  31; 6HR MAX TEMP:  36;

PORT HOPE        N/A     40  34  79 W12       30.15S WCI  33
6HR MIN TEMP:  40; 6HR MAX TEMP:  41;

PORT HURON     CLOUDY    36  32  87 W8        30.21R WCI  29
TRI CITIES     CLEAR     32  30  92 W12       30.23S WCI  23
6HR MIN TEMP:  32; 6HR MAX TEMP:  36;

MIDLAND        MOCLDY    33  29  86 SW5       30.22S WCI  29
6HR MIN TEMP:  33; 6HR MAX TEMP:  37;

TROY           CLOUDY    35  28  75 W3        30.25R
SAGINAW HB     MOCLDY    34  30  86 W12       30.22S WCI  25
$$
MIZ043>046-050>051-056>058-064>065-071>073-077>080-030700-
SOUTHWEST LOWER MICHIGAN

CITY           SKY/WX    TMP DP  RH WIND       PRES   REMARKS
BATTLE CREEK   CLOUDY    35  30  82 W5        30.26F WCI  31
6HR MIN TEMP:  35; 6HR MAX TEMP:  36;

BENTON HARBOR  CLOUDY    37  26  64 W8        30.29S WCI  31
6HR MIN TEMP:  37; 6HR MAX TEMP:  39;

BIG RAPIDS     CLOUDY    36  30  78 W10       30.23R WCI  28
6HR MIN TEMP:  36; 6HR MAX TEMP:  36;

COLDWATER      CLOUDY    35  28  74 W3        30.26S
6HR MIN TEMP:  35; 6HR MAX TEMP:  36;

FREMONT        CLOUDY    35  27  70 W7        30.25S WCI  29
HOLLAND        CLOUDY    37  29  72 W8        30.28S WCI  31
6HR MIN TEMP:  37; 6HR MAX TEMP:  38;

GRAND RAPIDS   CLOUDY    36  28  73 NW6       30.27F WCI  31
6HR MIN TEMP:  35; 6HR MAX TEMP:  36;

IONIA          CLOUDY    35  28  75 W6        30.24F WCI  30
6HR MIN TEMP:  35; 6HR MAX TEMP:  35;

KALAMAZOO      CLOUDY    36  28  73 W3        30.27S
6HR MIN TEMP:  36; 6HR MAX TEMP:  37;

LUDINGTON      CLOUDY    37  31  80 W3        30.25F
6HR MIN TEMP:  36; 6HR MAX TEMP:  37;

MARSHALL       CLOUDY    35  31  85 CALM      30.26S
6HR MIN TEMP:  35; 6HR MAX TEMP:  36;

MOUNT PLEASANT PTCLDY    32  29  88 CALM      30.22S
6HR MIN TEMP:  32; 6HR MAX TEMP:  36;

MUSKEGON       CLOUDY    37  29  72 W7        30.28S WCI  32
6HR MIN TEMP:  37; 6HR MAX TEMP:  38;

SOUTH HAVEN    CLOUDY    39  30  70 NW6       30.28S WCI  35
$$
MIZ016>042-030700-
NORTHERN LOWER MICHIGAN

CITY           SKY/WX    TMP DP  RH WIND       PRES   REMARKS
ALPENA         CLOUDY    37  31  78 W6        30.17R WCI  32
6HR MIN TEMP:  35; 6HR MAX TEMP:  39;

BEAVER ISLAND  CLOUDY    37  33  84 NW5       30.20S WCI  33
6HR MIN TEMP:  37; 6HR MAX TEMP:  38;

BELLAIRE       CLOUDY    37  36  93 CALM      30.21R
6HR MIN TEMP:  37; 6HR MAX TEMP:  38;

CADILLAC       CLOUDY    34  32  94 W7        30.19S WCI  28
CHARLEVOIX     CLOUDY    38  33  81 NW8       30.22S WCI  33
6HR MIN TEMP:  38; 6HR MAX TEMP:  40;

FRANKFORT      CLOUDY    38  35  90 NW3       30.22F
GAYLORD        CLOUDY    36  32  85 NW3       30.16S
6HR MIN TEMP:  35; 6HR MAX TEMP:  37; 6HR PCP:  0.01;

GRAYLING       CLOUDY    36  35  96 W6        30.18S WCI  31
6HR MIN TEMP:  35; 6HR MAX TEMP:  37;

HARBOR SPRINGS CLOUDY    37  33  87 CALM      30.19S
HOUGHTON LAKE  CLOUDY    36  32  85 W10       30.19S WCI  28
6HR MIN TEMP:  35; 6HR MAX TEMP:  36;

MANISTEE       CLOUDY    38  32  79 W10       30.23F WCI  31
OSCODA         MOCLDY    35  32  87 W3        30.17S
6HR MIN TEMP:  35; 6HR MAX TEMP:  40;

PELLSTON       LGT RAIN  37  32  82 NW8       30.19R WCI  31
6HR MIN TEMP:  37; 6HR MAX TEMP:  39; 6HR PCP: TRACE;

ROGERS CITY    CLOUDY    37  32  81 W7        30.18R WCI  32
TRAVERSE CITY  CLOUDY    38  35  89 W5        30.21S WCI  34
6HR MIN TEMP:  38; 6HR MAX TEMP:  38; 6HR PCP: TRACE;

$$
MIZ007>008-015-030700-
EASTERN UPPER MICHIGAN

CITY           SKY/WX    TMP DP  RH WIND       PRES   REMARKS
KINROSS        CLOUDY    33  32  96 W8        30.15S WCI  26
6HR MIN TEMP:  32; 6HR MAX TEMP:  35; 6HR PCP: TRACE;

MACKINAC ISLAN CLOUDY    35  32  90 W8        30.17R WCI  28
6HR MIN TEMP:  35; 6HR MAX TEMP:  36;

NEWBERRY       CLOUDY    32  32  99 W7        30.17S WCI  26
6HR MIN TEMP:  32; 6HR MAX TEMP:  35;

S. S. MARIE    MOCLDY    35  33  92 NW3       30.14R
6HR MIN TEMP:  35; 6HR MAX TEMP:  37; 6HR PCP:  0.02;

MUNISING         N/A     38  31  76 N12       30.20S WCI  30
6HR MIN TEMP:  36; 6HR MAX TEMP:  38;

$$
MIZ004>006-011>014-085-030700-
CENTRAL UPPER MICHIGAN

CITY           SKY/WX    TMP DP  RH WIND       PRES   REMARKS
MANISTIQUE     CLOUDY    34  32  93 W7        30.20R WCI  28
6HR MIN TEMP:  34; 6HR MAX TEMP:  35;

ESCANABA       CLOUDY    34  29  82 NW5       30.23S WCI  30
6HR MIN TEMP:  34; 6HR MAX TEMP:  35;

MENOMINEE      CLOUDY    35  28  75 VRB3      30.26S
6HR MIN TEMP:  35; 6HR MAX TEMP:  36;

SAWYER-GWINN   CLOUDY    32  28  87 CALM      30.20S
6HR MIN TEMP:  31; 6HR MAX TEMP:  32;

$$
MIZ001>003-009>011-084-030700-
WESTERN UPPER MICHIGAN

CITY           SKY/WX    TMP DP  RH WIND       PRES   REMARKS
IRON MOUNTAIN  LGT SNOW  32  27  81 NW5       30.21S WCI  27
6HR MIN TEMP:  32; 6HR MAX TEMP:  34; 6HR PCP: TRACE;

HOUGHTON       LGT SNOW  32  28  85 W5        30.20S FOG     WCI  27
6HR MIN TEMP:  32; 6HR MAX TEMP:  33; 6HR PCP: TRACE;

COPPER HARBOR    N/A     35  28  75 N10       30.21S WCI  27
6HR MIN TEMP:  35; 6HR MAX TEMP:  36;

IRONWOOD       CLOUDY    27  26  96 SW6       30.25R WCI  20
6HR MIN TEMP:  27; 6HR MAX TEMP:  29;

$$

ABBREVIATIONS USED IN REMARKS
   TC - TEMPERATURE IN CELSIUS
  WCI - WIND CHILL INDEX
   HX - HEAT INDEX
  VSB - VISIBILITY





USA.gov is the U.S. government's official web portal to all federal, state and local government web resources and services.